timestamp,wind_dir_avg,wind_spd_avg,wind_spd_max_dir,wind_spd_gust,battery_voltage,lat,long
2021-06-26 00:04:01+00:00,230.0,3.51,230.0,4.23,13.37,47.59359,-54.27349
2021-06-26 00:14:01+00:00,236.0,3.96,246.0,4.56,12.81,47.59359,-54.27349
2021-06-26 00:24:01+00:00,236.0,4.53,233.0,5.27,12.81,47.59359,-54.27349
2021-06-26 00:34:01+00:00,243.0,4.83,248.0,5.7,12.81,47.59359,-54.27349
2021-06-26 00:44:01+00:00,227.0,3.63,227.0,5.17,12.81,47.59359,-54.27349
2021-06-26 00:54:01+00:00,238.0,5.1,239.0,5.61,12.81,47.59359,-54.27349
2021-06-26 01:04:01+00:00,235.0,5.25,238.0,5.76,12.81,47.59359,-54.27349
2021-06-26 01:14:00+00:00,226.0,4.81,221.0,5.97,12.65,47.59359,-54.27349
2021-06-26 01:24:00+00:00,222.0,4.08,230.0,5.76,12.65,47.59359,-54.27349
2021-06-26 01:34:00+00:00,223.0,4.16,221.0,5.59,12.65,47.59359,-54.27349
2021-06-26 01:44:00+00:00,218.0,4.08,218.0,4.61,12.65,47.59359,-54.27349
2021-06-26 01:54:00+00:00,224.0,4.42,221.0,5.15,12.65,47.59359,-54.27349
2021-06-26 02:04:00+00:00,226.0,4.84,228.0,5.42,12.65,47.59359,-54.27349
2021-06-26 02:14:00+00:00,229.0,4.48,227.0,5.15,12.57,47.59359,-54.27349
2021-06-26 02:24:00+00:00,231.0,4.48,235.0,5.4,12.57,47.59359,-54.27349
2021-06-26 02:34:00+00:00,227.0,4.64,232.0,5.14,12.57,47.59359,-54.27349
2021-06-26 02:44:00+00:00,218.0,4.5,217.0,4.76,12.57,47.59359,-54.27349
2021-06-26 02:54:00+00:00,223.0,3.73,228.0,4.04,12.57,47.59359,-54.27349
2021-06-26 03:04:00+00:00,195.0,3.6,194.0,3.93,12.57,47.59359,-54.27349
2021-06-26 03:14:01+00:00,210.0,2.78,217.0,3.29,12.57,47.59359,-54.27349
2021-06-26 03:24:01+00:00,200.0,1.89,199.0,2.37,12.57,47.59359,-54.27349
2021-06-26 03:34:01+00:00,180.0,1.55,181.0,1.98,12.57,47.59359,-54.27349
2021-06-26 03:44:01+00:00,189.0,1.96,190.0,2.31,12.57,47.59359,-54.27349
2021-06-26 03:54:01+00:00,214.0,2.57,214.0,2.87,12.57,47.59359,-54.27349
2021-06-26 04:04:01+00:00,194.0,3.02,196.0,3.4,12.57,47.59359,-54.27349
2021-06-26 04:14:01+00:00,206.0,3.15,211.0,3.55,12.57,47.59359,-54.27349
2021-06-26 04:24:01+00:00,222.0,3.5,227.0,3.97,12.57,47.59359,-54.27349
2021-06-26 04:34:01+00:00,224.0,3.74,227.0,4.22,12.57,47.59359,-54.27349
2021-06-26 04:44:01+00:00,230.0,3.67,226.0,4.28,12.57,47.59359,-54.27349
2021-06-26 04:54:01+00:00,210.0,4.9,213.0,5.37,12.57,47.59359,-54.27349
2021-06-26 05:04:01+00:00,165.0,5.32,163.0,5.83,12.57,47.59359,-54.27349
2021-06-26 05:14:01+00:00,186.0,4.96,184.0,5.37,12.57,47.59359,-54.27349
2021-06-26 05:24:01+00:00,187.0,4.56,185.0,4.93,12.57,47.59359,-54.27349
2021-06-26 05:34:01+00:00,179.0,4.29,179.0,4.55,12.57,47.59359,-54.27349
2021-06-26 05:44:01+00:00,172.0,4.32,172.0,5.51,12.57,47.59359,-54.27349
2021-06-26 05:54:01+00:00,190.0,3.15,194.0,3.68,12.57,47.59359,-54.27349
2021-06-26 06:04:01+00:00,190.0,2.82,184.0,3.2,12.57,47.59359,-54.27349
2021-06-26 06:14:01+00:00,218.0,4.35,217.0,4.68,12.49,47.59359,-54.27349
2021-06-26 06:24:01+00:00,221.0,4.42,217.0,5.02,12.49,47.59359,-54.27349
2021-06-26 06:34:01+00:00,218.0,4.79,220.0,5.26,12.49,47.59359,-54.27349
2021-06-26 06:44:01+00:00,233.0,4.45,231.0,4.98,12.49,47.59359,-54.27349
2021-06-26 06:54:01+00:00,250.0,4.0,255.0,4.46,12.49,47.59359,-54.27349
2021-06-26 07:04:01+00:00,238.0,3.44,238.0,3.94,12.49,47.59359,-54.27349
2021-06-26 07:14:00+00:00,243.0,4.49,259.0,5.34,12.49,47.59359,-54.27349
2021-06-26 07:24:00+00:00,216.0,2.87,215.0,3.46,12.49,47.59359,-54.27349
2021-06-26 07:34:00+00:00,217.0,4.77,216.0,5.15,12.49,47.59359,-54.27349
2021-06-26 07:44:00+00:00,214.0,5.12,215.0,5.53,12.49,47.59359,-54.27349
2021-06-26 07:54:00+00:00,210.0,5.37,215.0,6.34,12.49,47.59359,-54.27349
2021-06-26 08:04:00+00:00,210.0,5.25,210.0,5.88,12.49,47.59359,-54.27349
2021-06-26 08:14:00+00:00,202.0,5.51,207.0,6.43,12.49,47.59359,-54.27349
2021-06-26 08:24:00+00:00,212.0,5.22,207.0,5.89,12.49,47.59359,-54.27349
2021-06-26 08:34:00+00:00,222.0,5.73,219.0,6.32,12.49,47.59359,-54.27349
2021-06-26 08:44:00+00:00,210.0,6.79,210.0,7.6,12.49,47.59359,-54.27349
2021-06-26 08:54:00+00:00,205.0,6.93,204.0,7.59,12.49,47.59359,-54.27349
2021-06-26 09:04:00+00:00,205.0,6.07,206.0,7.02,12.49,47.59359,-54.27349
2021-06-26 09:14:01+00:00,205.0,7.32,205.0,7.8,12.97,47.59359,-54.27349
2021-06-26 09:24:01+00:00,203.0,7.46,201.0,7.98,12.97,47.59359,-54.27349
2021-06-26 09:34:01+00:00,182.0,7.5,170.0,8.3,12.97,47.59359,-54.27349
2021-06-26 09:44:01+00:00,210.0,6.32,210.0,7.07,12.97,47.59359,-54.27349
2021-06-26 09:54:01+00:00,219.0,5.72,216.0,7.33,12.97,47.59359,-54.27349
2021-06-26 10:04:01+00:00,183.0,6.22,199.0,7.57,12.97,47.59359,-54.27349
2021-06-26 10:14:01+00:00,210.0,7.36,208.0,8.09,13.6,47.59359,-54.27349
2021-06-26 10:24:01+00:00,214.0,7.11,210.0,8.02,13.6,47.59359,-54.27349
2021-06-26 10:34:01+00:00,213.0,7.82,214.0,8.56,13.6,47.59359,-54.27349
2021-06-26 10:44:01+00:00,214.0,7.43,214.0,8.45,13.6,47.59359,-54.27349
2021-06-26 10:54:01+00:00,208.0,8.38,208.0,9.76,13.6,47.59359,-54.27349
2021-06-26 11:04:01+00:00,209.0,8.22,206.0,9.11,13.6,47.59359,-54.27349
2021-06-26 11:14:01+00:00,211.0,8.54,208.0,9.41,13.84,47.59359,-54.27349
2021-06-26 11:24:01+00:00,215.0,8.22,213.0,9.51,13.84,47.59359,-54.27349
2021-06-26 11:34:01+00:00,213.0,8.24,212.0,8.76,13.84,47.59359,-54.27349
2021-06-26 11:44:01+00:00,208.0,9.19,207.0,9.66,13.84,47.59359,-54.27349
2021-06-26 11:54:01+00:00,201.0,9.08,200.0,9.68,13.84,47.59359,-54.27349
2021-06-26 12:04:01+00:00,203.0,8.28,206.0,8.99,13.84,47.59359,-54.27349
2021-06-26 12:14:01+00:00,201.0,8.39,190.0,9.48,13.68,47.59359,-54.27349
2021-06-26 12:24:01+00:00,203.0,9.77,205.0,11.0,13.68,47.59359,-54.27349
2021-06-26 12:34:01+00:00,204.0,8.92,205.0,10.12,13.68,47.59359,-54.27349
2021-06-26 12:44:01+00:00,202.0,9.25,200.0,10.21,13.68,47.59359,-54.27349
2021-06-26 12:54:01+00:00,205.0,9.0,206.0,10.15,13.68,47.59359,-54.27349
2021-06-26 13:04:01+00:00,210.0,9.86,211.0,10.52,13.68,47.59359,-54.27349
2021-06-26 13:14:01+00:00,206.0,10.0,208.0,10.69,14.08,47.59359,-54.27349
2021-06-26 13:24:01+00:00,207.0,9.23,205.0,10.12,14.08,47.59359,-54.27349
2021-06-26 13:34:01+00:00,206.0,9.16,209.0,9.98,14.08,47.59359,-54.27349
2021-06-26 13:44:01+00:00,200.0,9.38,198.0,10.32,14.08,47.59359,-54.27349
2021-06-26 13:54:01+00:00,198.0,9.93,199.0,10.6,14.08,47.59359,-54.27349
2021-06-26 14:04:01+00:00,205.0,10.38,206.0,11.29,14.08,47.59359,-54.27349
2021-06-26 14:14:01+00:00,206.0,10.08,208.0,11.34,14.32,47.59359,-54.27349
2021-06-26 14:24:01+00:00,210.0,11.17,211.0,12.17,14.32,47.59359,-54.27349
2021-06-26 14:34:01+00:00,210.0,10.22,208.0,11.41,14.32,47.59359,-54.27349
2021-06-26 14:44:01+00:00,210.0,9.84,211.0,10.75,14.32,47.59359,-54.27349
2021-06-26 14:54:01+00:00,206.0,10.19,206.0,11.0,14.32,47.59359,-54.27349
2021-06-26 15:04:01+00:00,207.0,9.84,208.0,11.2,14.32,47.59359,-54.27349
2021-06-26 15:14:01+00:00,206.0,10.12,209.0,10.93,13.92,47.59359,-54.27349
2021-06-26 15:24:01+00:00,207.0,10.69,209.0,11.45,13.92,47.59359,-54.27349
2021-06-26 15:34:01+00:00,204.0,9.78,207.0,11.16,13.92,47.59359,-54.27349
2021-06-26 15:44:01+00:00,205.0,10.58,204.0,11.64,13.92,47.59359,-54.27349
2021-06-26 15:54:01+00:00,207.0,9.82,208.0,11.14,13.92,47.59359,-54.27349
2021-06-26 16:04:01+00:00,206.0,10.24,207.0,11.54,13.92,47.59359,-54.27349
2021-06-26 16:14:01+00:00,206.0,10.25,207.0,11.24,14.24,47.59359,-54.27349
2021-06-26 16:24:01+00:00,206.0,10.13,207.0,11.15,14.24,47.59359,-54.27349
2021-06-26 16:34:01+00:00,208.0,10.35,209.0,11.8,14.24,47.59359,-54.27349
2021-06-26 16:44:01+00:00,208.0,10.49,207.0,11.46,14.24,47.59359,-54.27349
2021-06-26 16:54:01+00:00,206.0,10.85,209.0,12.3,14.24,47.59359,-54.27349
2021-06-26 17:04:01+00:00,206.0,9.44,206.0,11.0,14.24,47.59359,-54.27349
2021-06-26 17:14:01+00:00,206.0,8.98,201.0,10.22,14.08,47.59359,-54.27349
2021-06-26 17:24:01+00:00,210.0,9.66,213.0,10.96,14.08,47.59359,-54.27349
2021-06-26 17:34:01+00:00,203.0,9.77,205.0,10.82,14.08,47.59359,-54.27349
2021-06-26 17:44:01+00:00,197.0,9.88,201.0,11.23,14.08,47.59359,-54.27349
2021-06-26 17:54:01+00:00,200.0,9.49,196.0,11.07,14.08,47.59359,-54.27349
2021-06-26 18:04:01+00:00,200.0,10.05,197.0,11.21,14.08,47.59359,-54.27349
2021-06-26 18:14:01+00:00,201.0,9.96,200.0,11.27,13.84,47.59359,-54.27349
2021-06-26 18:24:01+00:00,203.0,9.61,204.0,11.03,13.84,47.59359,-54.27349
2021-06-26 18:34:01+00:00,203.0,10.11,202.0,11.0,13.84,47.59359,-54.27349
2021-06-26 18:44:01+00:00,206.0,10.24,208.0,11.78,13.84,47.59359,-54.27349
2021-06-26 18:54:01+00:00,206.0,9.74,208.0,11.3,13.84,47.59359,-54.27349
2021-06-26 19:04:01+00:00,206.0,9.95,209.0,11.13,13.84,47.59359,-54.27349
2021-06-26 19:14:01+00:00,209.0,10.29,210.0,11.85,13.84,47.59359,-54.27349
2021-06-26 19:24:01+00:00,208.0,10.08,207.0,11.77,13.84,47.59359,-54.27349
2021-06-26 19:34:01+00:00,206.0,9.68,206.0,11.02,13.84,47.59359,-54.27349
2021-06-26 19:44:01+00:00,207.0,10.08,208.0,11.84,13.84,47.59359,-54.27349
2021-06-26 19:54:01+00:00,207.0,10.93,206.0,12.03,13.84,47.59359,-54.27349
2021-06-26 20:04:01+00:00,208.0,10.02,211.0,11.16,13.84,47.59359,-54.27349
2021-06-26 20:14:01+00:00,209.0,10.53,206.0,12.16,13.76,47.59359,-54.27349
2021-06-26 20:24:01+00:00,211.0,10.98,210.0,11.98,13.76,47.59359,-54.27349
2021-06-26 20:34:01+00:00,210.0,10.52,212.0,11.54,13.76,47.59359,-54.27349
2021-06-26 20:44:01+00:00,209.0,10.35,210.0,11.85,13.76,47.59359,-54.27349
2021-06-26 20:54:01+00:00,209.0,10.29,210.0,11.34,13.76,47.59359,-54.27349
2021-06-26 21:04:01+00:00,211.0,9.88,206.0,10.61,13.76,47.59359,-54.27349
2021-06-26 21:14:01+00:00,213.0,9.65,218.0,10.69,13.68,47.59359,-54.27349
2021-06-26 21:24:01+00:00,216.0,9.16,219.0,10.22,13.68,47.59359,-54.27349
2021-06-26 21:34:01+00:00,217.0,8.55,213.0,10.15,13.68,47.59359,-54.27349
2021-06-26 21:44:01+00:00,215.0,9.46,218.0,10.17,13.68,47.59359,-54.27349
2021-06-26 21:54:01+00:00,212.0,9.63,213.0,10.47,13.68,47.59359,-54.27349
2021-06-26 22:04:01+00:00,210.0,9.14,208.0,10.34,13.68,47.59359,-54.27349
2021-06-26 22:14:01+00:00,208.0,8.08,206.0,8.98,13.44,47.59359,-54.27349
2021-06-26 22:24:01+00:00,213.0,9.94,211.0,10.97,13.44,47.59359,-54.27349
2021-06-26 22:34:01+00:00,211.0,9.49,210.0,10.7,13.44,47.59359,-54.27349
2021-06-26 22:44:01+00:00,212.0,9.43,208.0,10.29,13.44,47.59359,-54.27349
2021-06-26 22:54:01+00:00,211.0,8.89,209.0,9.64,13.44,47.59359,-54.27349
2021-06-26 23:04:01+00:00,209.0,8.71,210.0,9.52,13.44,47.59359,-54.27349
2021-06-26 23:14:01+00:00,211.0,8.69,214.0,9.41,13.05,47.59359,-54.27349
2021-06-26 23:24:01+00:00,207.0,8.9,208.0,9.94,13.05,47.59359,-54.27349
2021-06-26 23:34:01+00:00,205.0,8.09,207.0,8.98,13.05,47.59359,-54.27349
2021-06-26 23:44:01+00:00,208.0,8.22,200.0,10.65,13.05,47.59359,-54.27349
2021-06-26 23:54:01+00:00,208.0,8.28,207.0,8.82,13.05,47.59359,-54.27349
